This is the latest recevied weather packets stored in our database for station/object WD5U-1. If no packets are shown the sender has not sent any weather packets the latest 10 day(s).
| Time | Temp. | Humidity | Pressure | Rain* | Wind** | Luminosity | Snow |
|---|---|---|---|---|---|---|---|
| 1777436665 | 18.89° C | 84% | 1015.6 hPa | 0 mm | - | - | - |
| 1777435461 | 18.89° C | 86% | 1015.6 hPa | 0 mm | - | - | - |
| 1777435339 | 18.89° C | 87% | 1015.7 hPa | 0 mm | - | - | - |
| 1777434023 | 19.44° C | 86% | 1015.6 hPa | 0 mm | - | - | - |
| 1777433902 | 19.44° C | 87% | 1015.6 hPa | 0 mm | - | - | - |
| 1777433538 | 19.44° C | 86% | 1015.5 hPa | 0 mm | - | - | - |
| 1777433325 | 19.44° C | 86% | 1015.2 hPa | 0 mm | - | - | - |
| 1777432819 | 19.44° C | 87% | 1015 hPa | 0 mm | - | - | - |
| 1777432576 | 20° C | 87% | 1015 hPa | 0 mm | - | - | - |
| 1777432223 | 20° C | 87% | 1014.9 hPa | 0 mm | - | - | - |
| 1777431979 | 20° C | 88% | 1014.9 hPa | 0 mm | - | - | - |
| 1777431736 | 20° C | 88% | 1014.9 hPa | 0 mm | - | - | - |
| 1777431138 | 20° C | 90% | 1014.4 hPa | 0 mm | - | - | - |
| 1777430905 | 20° C | 90% | 1014.2 hPa | 0 mm | - | - | - |
| 1777430420 | 20.56° C | 90% | 1014.2 hPa | 0 mm | - | - | - |
| 1777429944 | 20.56° C | 90% | 1014 hPa | 0 mm | - | - | - |
| 1777429702 | 20.56° C | 90% | 1013.9 hPa | 0 mm | - | - | - |
| 1777428982 | 21.11° C | 90% | 1013.3 hPa | 0 mm | - | - | - |
| 1777428760 | 21.11° C | 90% | 1013.4 hPa | 0 mm | - | - | - |
| 1777427656 | 21.11° C | 91% | 1012.9 hPa | 0 mm | - | - | - |
| 1777427304 | 21.11° C | 90% | 1013.1 hPa | 0 mm | - | - | - |
| 1777425976 | 21.11° C | 88% | 1012.4 hPa | 0 mm | - | - | - |
| 1777425642 | 21.67° C | 86% | 1012.3 hPa | 0 mm | - | - | - |
| 1777425024 | 22.22° C | 80% | 1012.5 hPa | 0 mm | - | - | - |
| 1777424660 | 22.22° C | 82% | 1012.4 hPa | 0 mm | - | - | - |
* Rain latest hour (hover to see other rain measurements)
** Current wind speed in m/s (hover to see current wind gust speed)